Location: Melbourne
(37.8666°S, 145.1333°E)
Time: 05:48:53
(UTC+11:00)

HST - Visible Passes

Search period start: 25 October 2014 00:00
Search period end: 04 November 2014 00:00
Orbit: 546 x 550 km, 28.5° (Epoch: 23 October)

Date Brightness Start Highest point End Pass type
(mag) Time Alt. Az. Time Alt. Az. Time Alt. Az.
30 Oct 3.2 05:39:15 10° N 05:40:39 11° NNE 05:42:03 10° NE visible
31 Oct 3.1 05:31:01 10° NNW 05:33:12 14° NNE 05:35:23 10° NE visible
01 Nov 2.9 05:23:08 10° NNW 05:25:46 16° NNE 05:28:24 10° NE visible
02 Nov 2.7 05:15:44 11° NNW 05:18:19 18° N 05:21:15 10° NE visible
03 Nov 2.5 05:08:41 14° NNW 05:10:53 20° N 05:14:00 10° NE visible
